TimeMST,TemperatureF,Dew PointF,Humidity,Sea Level PressureIn,VisibilityMPH,Wind Direction,Wind SpeedMPH,Gust SpeedMPH,PrecipitationIn,Events,Conditions,WindDirDegrees,DateUTC
12:55 AM,75.0,46.0,36,29.76,10.0,NW,6.9,-,N/A,,Mostly Cloudy,320,2012-10-11 07:55:00
1:55 AM,73.9,44.1,34,29.77,10.0,NW,10.4,-,N/A,,Mostly Cloudy,320,2012-10-11 08:55:00
2:55 AM,73.0,43.0,34,29.76,10.0,NW,11.5,24.2,N/A,,Mostly Cloudy,320,2012-10-11 09:55:00
3:55 AM,72.0,44.1,37,29.76,10.0,NW,13.8,23.0,N/A,,Mostly Cloudy,320,2012-10-11 10:55:00
4:55 AM,71.1,44.1,38,29.77,10.0,NW,15.0,24.2,N/A,,Mostly Cloudy,310,2012-10-11 11:55:00
5:55 AM,70.0,43.0,38,29.79,10.0,NW,13.8,20.7,N/A,,Mostly Cloudy,310,2012-10-11 12:55:00
6:55 AM,70.0,42.1,36,29.80,10.0,NW,11.5,16.1,N/A,,Mostly Cloudy,310,2012-10-11 13:55:00
7:55 AM,69.1,42.1,38,29.82,10.0,NW,9.2,17.3,N/A,,Mostly Cloudy,320,2012-10-11 14:55:00
8:55 AM,72.0,42.1,34,29.83,10.0,NW,12.7,-,N/A,,Mostly Cloudy,320,2012-10-11 15:55:00
9:55 AM,72.0,39.9,31,29.85,10.0,NW,12.7,19.6,N/A,,Mostly Cloudy,310,2012-10-11 16:55:00
10:55 AM,77.0,39.0,25,29.84,10.0,WNW,18.4,25.3,N/A,,Mostly Cloudy,290,2012-10-11 17:55:00
11:55 AM,79.0,37.0,22,29.84,10.0,NW,16.1,20.7,N/A,,Scattered Clouds,310,2012-10-11 18:55:00
12:55 PM,80.1,36.0,20,29.82,10.0,NW,12.7,19.6,N/A,,Scattered Clouds,310,2012-10-11 19:55:00
1:55 PM,81.0,35.1,19,29.80,10.0,NW,11.5,-,N/A,,Scattered Clouds,320,2012-10-11 20:55:00
2:55 PM,81.0,36.0,20,29.80,10.0,WNW,11.5,-,N/A,,Scattered Clouds,300,2012-10-11 21:55:00
3:55 PM,80.1,37.0,21,29.79,10.0,Calm,Calm,-,N/A,,Scattered Clouds,0,2012-10-11 22:55:00
4:55 PM,79.0,37.9,23,29.79,10.0,WNW,6.9,-,N/A,,Scattered Clouds,290,2012-10-11 23:55:00
5:55 PM,75.9,37.9,25,29.80,10.0,WNW,11.5,-,N/A,,Scattered Clouds,290,2012-10-12 00:55:00
6:55 PM,73.9,39.0,28,29.81,10.0,WNW,15.0,-,N/A,,Mostly Cloudy,300,2012-10-12 01:55:00
7:55 PM,73.0,41.0,31,29.82,10.0,NW,13.8,19.6,N/A,,Mostly Cloudy,310,2012-10-12 02:55:00
8:55 PM,71.1,43.0,36,29.83,10.0,WNW,17.3,23.0,N/A,,Scattered Clouds,300,2012-10-12 03:55:00
9:00 PM,-9999,-9999,N/A,-9999,-9999.0,North,-9999.0,-,N/A,,Unknown,0,2012-10-12 04:00:00
9:55 PM,69.1,41.0,36,29.86,10.0,NW,12.7,-,N/A,,Scattered Clouds,310,2012-10-12 04:55:00
10:55 PM,64.0,48.0,56,29.87,10.0,WNW,15.0,-,0.00,Rain,Light Rain,290,2012-10-12 05:55:00
11:55 PM,62.1,51.1,67,29.89,6.0,North,9.2,-,0.02,Rain,Rain,360,2012-10-12 06:55:00